Вернуться в каталог

FENGYUN 1C DEB

АктивенPO
NORAD 30385·DEBRIS·🇨🇳 China

Запущен May 10, 1999 с Taiyuan Satellite Launch Center

Loading…

Ближайшие Пролёты (ближайшие 24 часа)

TLE

СвежийSource: Space-Track

Эпоха: Sep 14, 2026, 22:27 UTC

1 30385U 99025ACY 26257.93574368  .00000444  00000-0  14646-3 0  9997
2 30385  99.0554 299.4230 0124665 196.6801 287.5444 14.39213053 27393

Отслеживайте FENGYUN 1C DEB в реальном времени с AllMySat

Download on the App Store